Home > Weather > Quezon > Past weeks

Flag for Philippines Weather for the Past 2 Weeks in Quezon, Philippines

Now
77 °F

Broken clouds.


Feels Like: 79 °F
Forecast: 76 / 86 °F
Wind: 5 mph from North

Location: National Airport

Current Time: Feb 9, 2016 at 9:33:41 AM

Latest Report: Feb 9, 2016 at 8:00 AM


Visibility: N/A

Pressure: 30.01 "Hg

Humidity: 69%

Dew point: 66 °F

Location of QuezonLocation

Historic Weather in Quezon — Graph

°F

Quezon Temperature Yesterday

Maximum temperature yesterday: 84 °F (at 12:00 PM)
Minimum temperature yesterday: 73 °F (at 2:00 AM)
Average temperature yesterday: 78 °F

High & Low Weather Summary for the Past Weeks

 TemperatureHumidityPressure
High91 °F (Feb 2, 1:00 PM)100% (Jan 26, 10:00 AM)30.12 "Hg (Jan 26, 10:00 AM)
Low73 °F (Feb 8, 2:00 AM)41% (Feb 2, 2:00 PM)29.56 "Hg (Feb 2, 5:00 PM)
Average81 °F73%29.95 "Hg
* Reported Jan 25 7:00 AM — Feb 9 7:00 AM, Quezon, Weather by CustomWeather, © 2016

Note: Actual official high and low records may vary slightly from our data, if they occured in-between our weather recording intervals... More about our weather records

Advertising

Quezon Weather History for the Previous 24 Hours

 ConditionsComfort  
Time TempWeatherWind HumidityBarometerVisibility
7:00 AM
Tue, Feb 9
75 °FScattered clouds.5 mph74%29.98 "HgN/A
6:00 AM73 °FPassing clouds.5 mph78%29.98 "HgN/A
5:00 AM73 °FPassing clouds.3 mph83%29.95 "HgN/A
4:00 AM73 °FPassing clouds.No wind83%29.95 "HgN/A
3:00 AM73 °FPassing clouds.2 mph83%29.95 "HgN/A
2:00 AM73 °FPassing clouds.3 mph78%29.95 "HgN/A
1:00 AM75 °FPassing clouds.6 mph74%29.98 "HgN/A
12:00 AM75 °FPassing clouds.7 mph74%29.98 "HgN/A
11:00 PM
Mon, Feb 8
75 °FPassing clouds.5 mph74%29.98 "HgN/A
10:00 PM77 °FPassing clouds.8 mph65%29.98 "HgN/A
9:00 PM77 °FPassing clouds.6 mph65%29.98 "HgN/A
8:00 PM77 °FPassing clouds.8 mph65%29.98 "HgN/A
7:00 PM77 °FPassing clouds.9 mph69%29.95 "HgN/A
6:00 PM79 °FPassing clouds.10 mph65%29.92 "HgN/A
5:00 PM81 °FScattered clouds.12 mph62%29.92 "HgN/A
4:00 PM84 °FScattered clouds.12 mph51%29.89 "HgN/A
3:00 PM84 °FPassing clouds.12 mph58%29.89 "HgN/A
2:00 PM84 °FPassing clouds.13 mph51%29.92 "HgN/A
1:00 PM84 °FScattered clouds.13 mph51%29.95 "HgN/A
12:00 PM84 °FScattered clouds.16 mph51%29.98 "HgN/A
11:00 AM82 °FScattered clouds.14 mph55%29.98 "HgN/A
10:00 AM82 °FScattered clouds.7 mph58%30.01 "HgN/A
9:00 AM81 °FPassing clouds.2 mph62%30.01 "HgN/A
Weather by CustomWeather, © 2016

See weather overviewHow to use our weather pages